• Join FlightAware (Why Join?)
  • Login
  • US Flag GB Flag 
01:38 EST


 

Airport Tracker/Info


-or-


 

Live Flight TrackerFlight Track Log ✈ SWA385 ✈ 27-May-2013 ✈ KHOU - KDEN

Flight Track Log - Related Links

Times and Time Zones

All times are in EDT time to prevent confusion due to time zone crossing. See the SWA385 flight status page for this flight to view local times or setup timezone preferences in your user account.

Time Position Orientation Groundspeed Altitude Reporting Facility
EDT Latitude Longitude Course Direction KTS MPH feet Rate Location/Type
08:29 29.6353 -95.2892 115° Southeast 149 171 800  Level Houston Center
08:30 29.6219 -95.2569 115° Southeast 214 246 2,600 2,160 Climbing Houston Center
08:31 29.6822 -95.2497 North 245 282 4,800 2,400 Climbing Houston Center
08:32 29.7528 -95.2756 342° North 286 329 7,500 2,760 Climbing Houston Center
08:33 29.8292 -95.3122 337° Northwest 293 337 10,700 3,000 Climbing Houston Center
08:34 29.9358 -95.3639 337° Northwest 346 398 13,700 3,120 Climbing Houston Center
08:35 30.0319 -95.4106 337° Northwest 371 427 17,100 3,120 Climbing Houston Center
08:36 30.1303 -95.4578 337° Northwest 381 438 20,100 3,000 Climbing Houston Center
08:37 30.2322 -95.5069 337° Northwest 394 453 23,200 2,580 Climbing Houston Center
08:38 30.3356 -95.5567 337° Northwest 400 460 25,400 2,100 Climbing Houston Center
08:39 30.4447 -95.6103 337° Northwest 420 483 27,500 2,100 Climbing Houston Center
08:40 30.5553 -95.6633 338° Northwest 431 496 29,700 2,040 Climbing Houston Center
08:41 30.6653 -95.7222 335° Northwest 435 501 31,700 2,040 Climbing Houston Center
08:42 30.7858 -95.7872 335° Northwest 434 499 34,000 2,040 Climbing Houston Center
08:43 30.8956 -95.8456 335° Northwest 431 496 35,900 1,680 Climbing Houston Center
08:44 31.0047 -95.9028 336° Northwest 429 494 37,500 1,500 Climbing Houston Center
08:45 31.1111 -95.9608 335° Northwest 423 487 39,000 1,200 Climbing Houston Center
08:46 31.2228 -96.0058 341° North 422 486 40,000 480 Climbing Houston Center
08:47 31.3328 -96.0492 341° North 415 478 40,000  Level Houston Center
08:48 31.4419 -96.0889 343° North 414 476 40,000  Level Houston Center
08:49 31.5525 -96.1325 341° North 414 476 40,000  Level Houston Center
08:50 31.6606 -96.1747 342° North 409 471 40,000  Level Houston Center
08:51 31.7378 -96.2067 341° North 404 465 40,000  Level Fort Worth Center
08:52 31.8489 -96.2492 342° North 404 465 40,000  Level Fort Worth Center
08:53 31.9536 -96.2919 341° North 404 465 40,000  Level Fort Worth Center
08:54 32.0606 -96.3372 340° North 409 471 40,000  Level Fort Worth Center
08:55 32.1717 -96.3800 342° North 409 471 40,000  Level Fort Worth Center
08:56 32.2600 -96.4650 321° Northwest 402 463 40,000  Level Fort Worth Center
08:57 32.3481 -96.5478 322° Northwest 402 463 40,000  Level Fort Worth Center
08:58 32.4383 -96.6306 322° Northwest 409 471 40,000  Level Fort Worth Center
08:59 32.5267 -96.7161 321° Northwest 409 471 40,000  Level Fort Worth Center
09:00 32.6147 -96.7967 322° Northwest 403 464 40,000  Level Fort Worth Center
09:01 32.7028 -96.8803 321° Northwest 403 464 40,000  Level Fort Worth Center
09:02 32.7844 -96.9564 322° Northwest 403 464 40,000  Level Fort Worth Center
09:03 32.8808 -97.0472 322° Northwest 403 464 40,000  Level Fort Worth Center
09:04 32.9603 -97.1211 322° Northwest 403 464 40,000  Level Fort Worth Center
09:05 33.0567 -97.2150 321° Northwest 403 464 40,000  Level Fort Worth Center
09:06 33.1444 -97.2944 323° Northwest 426 490 40,000  Level Fort Worth Center
09:07 33.2300 -97.3786 321° Northwest 415 478 40,000  Level Fort Worth Center
09:08 33.3175 -97.4631 321° Northwest 410 472 40,000  Level Fort Worth Center
09:09 33.4053 -97.5503 320° Northwest 405 466 40,000  Level Fort Worth Center
09:10 33.4928 -97.6328 322° Northwest 405 466 40,000  Level Fort Worth Center
09:11 33.5822 -97.7178 322° Northwest 400 460 40,000  Level Fort Worth Center
09:12 33.6697 -97.8003 322° Northwest 400 460 40,000  Level Fort Worth Center
09:13 33.7550 -97.8856 320° Northwest 400 460 40,000  Level Fort Worth Center
09:14 33.8444 -97.9711 322° Northwest 400 460 40,000  Level Fort Worth Center
09:15 33.9294 -98.0594 319° Northwest 400 460 40,000  Level Fort Worth Center
09:16 34.0189 -98.1428 322° Northwest 400 460 40,000  Level Fort Worth Center
09:17 34.1017 -98.2336 318° Northwest 400 460 40,000  Level Fort Worth Center
09:18 34.1908 -98.3200 321° Northwest 405 466 40,000  Level Fort Worth Center
09:19 34.2800 -98.4089 321° Northwest 411 473 40,000  Level Fort Worth Center
09:20 34.3689 -98.4978 320° Northwest 411 473 40,000  Level Fort Worth Center
09:21 34.4558 -98.5847 321° Northwest 406 467 40,000  Level Fort Worth Center
09:22 34.5425 -98.6689 321° Northwest 406 467 40,000  Level Fort Worth Center
09:23 34.6417 -98.7614 323° Northwest 401 461 40,000  Level Fort Worth Center
09:24 34.7264 -98.8486 320° Northwest 401 461 40,000  Level Fort Worth Center
09:25 34.8150 -98.9386 320° Northwest 401 461 40,000  Level Fort Worth Center
09:26 34.9036 -99.0239 322° Northwest 401 461 40,000  Level Fort Worth Center
09:27 34.9900 -99.1142 319° Northwest 401 461 40,000  Level Fort Worth Center
09:28 35.0786 -99.1997 322° Northwest 401 461 40,000  Level Fort Worth Center
09:29 35.1525 -99.2772 319° Northwest 401 461 40,000  Level Fort Worth Center
09:30 35.2386 -99.3656 320° Northwest 401 461 40,000  Level Fort Worth Center
09:32 35.4422 -99.5733 320° Northwest 403 464 40,000  Level Kansas City Center
09:33 35.5464 -99.6808 320° Northwest 404 465 40,000  Level Kansas City Center
09:34 35.6325 -99.7697 320° Northwest 402 463 40,000  Level Kansas City Center
09:35 35.7186 -99.8581 320° Northwest 400 460 40,000  Level Kansas City Center
09:36 35.8036 -99.9472 320° Northwest 399 459 40,000  Level Kansas City Center
09:37 35.8881 -100.0358 320° Northwest 397 457 40,000  Level Kansas City Center
09:38 35.9733 -100.1242 320° Northwest 397 457 40,000  Level Kansas City Center
09:39 36.0575 -100.2119 320° Northwest 395 455 40,000  Level Kansas City Center
09:40 36.1428 -100.3014 320° Northwest 398 458 40,000  Level Kansas City Center
09:41 36.2297 -100.3925 320° Northwest 403 464 40,000  Level Kansas City Center
09:42 36.3156 -100.4842 319° Northwest 404 465 40,000  Level Kansas City Center
09:43 36.4036 -100.5747 320° Northwest 407 468 40,000  Level Kansas City Center
09:44 36.4953 -100.6739 319° Northwest 410 472 40,000  Level Kansas City Center
09:45 36.5922 -100.7775 319° Northwest 412 474 40,000  Level Kansas City Center
09:46 36.6739 -100.8661 319° Northwest 409 471 40,000  Level Kansas City Center
09:47 36.7558 -100.9539 319° Northwest 406 467 40,000  Level Kansas City Center
09:48 36.8519 -101.0558 320° Northwest 405 466 40,000  Level Kansas City Center
09:49 36.9336 -101.1453 319° Northwest 406 467 40,000  Level Kansas City Center
09:51 37.0161 -101.2344 319° Northwest 408 470 40,000  Level Kansas City Center
09:52 37.1117 -101.3392 319° Northwest 407 468 40,000  Level Kansas City Center
09:53 37.1936 -101.4281 319° Northwest 406 467 40,000  Level Kansas City Center
09:54 37.2889 -101.5319 319° Northwest 405 466 40,000  Level Kansas City Center
09:55 37.3706 -101.6214 319° Northwest 405 466 40,000  Level Kansas City Center
09:56 37.4514 -101.7117 318° Northwest 405 466 40,000  Level Kansas City Center
09:57 37.5472 -101.8164 319° Northwest 406 467 40,000  Level Kansas City Center
09:58 37.6281 -101.9078 318° Northwest 407 468 40,000  Level Kansas City Center
09:59 37.7100 -101.9983 319° Northwest 407 468 40,000  Level Kansas City Center
10:00 37.8056 -102.1047 319° Northwest 409 471 40,000  Level Kansas City Center
10:00 37.8592 -102.1675 317° Northwest 409 471 40,000 -300 Level Denver Center
10:01 37.8831 -102.2014 312° West 407 468 39,700 -900 Descending Kansas City Center
10:01 37.9314 -102.2686 312° West 406 467 39,100 -960 Descending Denver Center
10:02 38.0039 -102.3686 313° West 403 464 38,200 -600 Descending Denver Center
10:03 38.0900 -102.4833 314° West 399 459 37,900 -660 Descending Denver Center
10:04 38.1603 -102.5817 312° West 394 453 36,900 -960 Descending Denver Center
10:05 38.2328 -102.6825 312° West 400 460 36,000 -1,020 Descending Denver Center
10:06 38.3186 -102.7975 314° West 402 463 34,900 -1,020 Descending Denver Center
10:07 38.3897 -102.8975 312° West 399 459 34,000 -480 Descending Denver Center
10:08 38.4633 -102.9964 314° West 399 459 34,000  Level Denver Center
10:09 38.5458 -103.1131 312° West 397 457 34,000  Level Denver Center
10:10 38.6214 -103.2194 312° West 397 457 34,000  Level Denver Center
10:12 38.6936 -103.3197 313° West 400 460 34,000 -1,260 Level Denver Center
10:13 38.7772 -103.4369 312° West 400 460 31,500 -2,340 Descending Denver Center
10:14 38.8481 -103.5369 312° West 398 458 29,300 -2,220 Descending Denver Center
10:15 38.9167 -103.6342 312° West 387 445 27,100 -2,400 Descending Denver Center
10:16 38.9967 -103.7483 312° West 385 443 24,500 -2,400 Descending Denver Center
10:17 39.0653 -103.8461 312° West 385 443 22,300 -2,340 Descending Denver Center
10:18 39.1436 -103.9561 313° West 376 433 19,800 -2,280 Descending Denver Center
10:19 39.2069 -104.0486 311° West 368 423 17,700 -1,440 Descending Denver Center
10:21 39.3739 -104.1442 336° Northwest 321 369 15,500 -1,080 Descending Denver Center
10:22 39.4658 -104.1522 356° North 329 379 14,500 -1,080 Descending Denver Center
10:23 39.5569 -104.1636 354° North 309 356 13,400 -780 Descending Denver Center
10:24 39.6419 -104.1728 355° North 308 354 13,000 -540 Descending Denver Center
10:25 39.7075 -104.1975 344° North 257 296 12,400 -780 Descending Denver Center
10:26 39.7567 -104.2453 323° Northwest 259 298 11,500 -1,080 Descending Denver Center
10:27 39.8244 -104.3094 324° Northwest 247 284 10,300 -1,200 Descending Denver Center
10:28 39.8728 -104.3578 323° Northwest 226 260 9,100 -1,200 Descending Denver Center
10:29 39.8753 -104.4378 272° West 209 241 7,900 -1,080 Descending Denver Center
10:30 39.8758 -104.5067 271° West 195 224 7,000 -840 Descending Denver Center
10:31 39.8764 -104.5644 271° West 166 191 6,200 -840 Descending Denver Center
10:32 39.8769 -104.6167 271° West 139 160 5,400 -480 Descending Denver Center
10:33 39.8778 -104.6636 271° West 138 159 5,300 -120 Descending Denver Center
10:35 39.8617 -104.6732 North  Level Estimated
10:42 39.8617 -104.6732 North  Level Estimated
10:43 39.8617 -104.6732 North  Level Estimated